Mount Ida, AR

8:56 PM CDT on April 28, 2017 (GMT -0500)
Mount Ida

Weather History for KMWT - December, 2011

Change the Weather History Date:

Friday, December 9, 2011

  Actual Average (KHOT) Record (KHOT)
Temperature  
Mean Temperature 37 °F -  
Max Temperature 53 °F 54 °F 75 °F (2007)
Min Temperature 21 °F 34 °F 16 °F (2005)
Degree Days  
Heating Degree Days 28    
Moisture  
Dew Point 27 °F    
Average Humidity 76    
Maximum Humidity 96    
Minimum Humidity 38    
Precipitation  
Precipitation 0.00 in - - ()
Sea Level Pressure  
Sea Level Pressure 30.33 in    
Wind  
Wind Speed 0 mph (East)    
Max Wind Speed 5 mph    
Max Gust Speed -    
Visibility 8 miles    
Events      
Averages and records for this station are not official NWS values.
T = Trace of Precipitation, MM = Missing Value Source: NWS Daily Summary

Daily Weather History Graph

Daily Weather History Graph

Search for Another Location

Airport or City:

Trip Planner

Search our weather history database for the weather conditions in past years. The results will help you decide how hot, cold, wet, or windy it might be!

Date:

Astronomy

Dec. 09, 2011 Rise Set
Actual Time 7:09 AM CST 5:03 PM CST
Civil Twilight 6:41 AM CST 5:31 PM CST
Nautical Twilight 6:10 AM CST 6:03 PM CST
Astronomical Twilight 5:39 AM CST 6:33 PM CST
Moon 4:28 PM CST (12/9) 6:17 AM CST (12/9)
Length of Visible Light 10h 50m
Length of Day
9h 54m
Waxing Gibbous, 99% of the Moon is Illuminated
Dec 9
Waxing Gibbous
Dec 10
Full
Dec 17
Last Quarter
Dec 24
New
Jan 1
First Quarter

Hourly Weather History & Observations

Time (CST) Temp. Dew Point Humidity Pressure Visibility Wind Dir Wind Speed Gust Speed Precip Events Conditions
12:53 AM 26.1 °F 24.1 °F 92% 30.23 in 9.0 mi Calm Calm - N/A   Clear
1:53 AM 24.1 °F 23.0 °F 96% 30.23 in 8.0 mi Calm Calm - N/A   Clear
2:53 AM 24.1 °F 21.9 °F 91% 30.23 in 7.0 mi Calm Calm - N/A   Clear
3:53 AM 24.1 °F 21.9 °F 91% 30.24 in 8.0 mi Calm Calm - N/A   Clear
4:53 AM 23.0 °F 21.0 °F 92% 30.23 in 8.0 mi Calm Calm - N/A   Clear
5:53 AM 23.0 °F 21.0 °F 92% 30.26 in 8.0 mi Calm Calm - N/A   Clear
6:53 AM 21.9 °F 19.9 °F 92% 30.29 in 9.0 mi Calm Calm - N/A   Clear
7:53 AM 23.0 °F 21.9 °F 96% 30.32 in 9.0 mi Calm Calm - N/A   Clear
8:53 AM 28.9 °F 27.0 °F 92% 30.34 in 10.0 mi Calm Calm - N/A   Clear
9:53 AM 35.1 °F 28.9 °F 78% 30.35 in 10.0 mi Calm Calm - N/A   Clear
10:53 AM 44.1 °F 28.9 °F 55% 30.34 in 10.0 mi Calm Calm - N/A   Clear
11:53 AM 50.0 °F 27.0 °F 41% 30.33 in 10.0 mi Calm Calm - N/A   Clear
12:53 PM 51.1 °F 28.0 °F 41% 30.31 in 10.0 mi ESE 3.5 mph - N/A   Clear
1:53 PM 53.1 °F 28.0 °F 38% 30.30 in 10.0 mi East 4.6 mph - N/A   Clear
2:53 PM 52.0 °F 28.0 °F 40% 30.31 in 10.0 mi Calm Calm - N/A   Clear
3:53 PM 52.0 °F 28.9 °F 41% 30.32 in 10.0 mi Calm Calm - N/A   Clear
4:53 PM 48.0 °F 30.9 °F 52% 30.35 in 10.0 mi Calm Calm - N/A   Clear
5:53 PM 41.0 °F 30.9 °F 67% 30.37 in 10.0 mi Calm Calm - N/A   Clear
6:53 PM 37.9 °F 32.0 °F 79% 30.39 in 6.0 mi Calm Calm - N/A   Haze
7:53 PM 35.1 °F 30.0 °F 82% 30.41 in 6.0 mi Calm Calm - N/A   Haze
8:53 PM 33.1 °F 30.0 °F 89% 30.42 in 5.0 mi Calm Calm - N/A   Clear
9:53 PM 30.0 °F 28.9 °F 96% 30.45 in 10.0 mi Calm Calm - N/A   Clear
10:53 PM 30.0 °F 28.0 °F 92% 30.45 in 6.0 mi Calm Calm - N/A   Clear
11:53 PM 28.0 °F 27.0 °F 96% 30.47 in 5.0 mi Calm Calm - N/A   Clear